Location: Nied?wied?
(53.3665°N, 14.8184°E)
Time: 01:08:07
(UTC+00:00)

Cosmos 1461 - Pass Details

Date: 03 March 2021
Orbit: 504 x 659 km, 65.0° (Epoch: 11 April)

Event Time Altitude Azimuth Distance (km) Brightness Sun altitude
Rises 17:30:40 0° 216° (SW) 2,969 7.1 -7.9°
Reaches altitude 10° 17:32:57 10° 215° (SW) 2,069 6.3 -8.3°
Maximum altitude 17:37:40 75° 131° (SE) 689 3.2 -9.0°
Drops below altitude 10° 17:42:23 10° 46° (NE) 2,073 5.3 -9.7°
Enters shadow 17:44:01 - 45° (NE) 2,712 5.9 -9.9°
